Weather History for Marathon, FL

Change the Weather History Date:

Monday, April 29, 2013

  Actual Average Record
Temperature  
Mean Temperature 81 °F 79 °F  
Max Temperature 87 °F 84 °F 90 °F (2011)
Min Temperature 74 °F 73 °F 69 °F (2001)
Degree Days  
Heating Degree Days 0 0  
Month to date heating degree days 0 0  
Since 1 July heating degree days 36 81  
Cooling Degree Days 16 14  
Month to date cooling degree days 490 356  
Year to date cooling degree days 1278 1021  
Growing Degree Days 30 (Base 50)    
Moisture  
Dew Point 69 °F    
Average Humidity 64    
Maximum Humidity 71    
Minimum Humidity 57    
Precipitation  
Precipitation 0.41 in 0.08 in 3.54 in (2012)
Month to date precipitation 4.12 2.31  
Year to date precipitation 7.89 8.52  
Snow  
Snow 0.00 in - - ()
Month to date snowfall 0.0  
Since 1 July snowfall 0.0  
Snow Depth 0.00 in    
Sea Level Pressure  
Sea Level Pressure 29.98 in    
Wind  
Wind Speed 8 mph (ESE)    
Max Wind Speed 20 mph    
Max Gust Speed 28 mph    
Visibility 8 miles    
Events Rain , Thunderstorm    
T = Trace of Precipitation, MM = Missing Value Source: NWS Daily Summary

Daily Weather History Graph

Daily Weather History Graph

Search for Another Location

Airport:

Trip Planner

Search our weather history database for the weather conditions in past years. The results will help you decide how hot, cold, wet, or windy it might be!

Date:

Astronomy

Apr. 29, 2013 Rise Set
Actual Time 6:50 AM EDT 7:53 PM EDT
Civil Twilight 6:26 AM EDT 8:17 PM EDT
Nautical Twilight 5:58 AM EDT 8:45 PM EDT
Astronomical Twilight 5:29 AM EDT 9:14 PM EDT
Moon No Moon Rise 10:19 AM EDT (4/29)
Length of Visible Light 13h 50m
Length of Day
13h 02m
Waning Gibbous, 80% of the Moon is Illuminated
Apr 29
Waning Gibbous
May 2
Last Quarter
May 9
New
May 18
First Quarter
May 25
Full

Hourly Weather History & Observations

Time (EDT) Temp. Heat Index Dew Point Humidity Pressure Visibility Wind Dir Wind Speed Gust Speed Precip Events Conditions
12:53 AM 81.0 °F 83.3 °F 66.9 °F 62% 29.99 in 10.0 mi ESE 9.2 mph - N/A   Partly Cloudy
1:53 AM 80.1 °F 82.3 °F 66.9 °F 64% 29.96 in 10.0 mi ESE 8.1 mph 18.4 mph N/A   Clear
2:53 AM 80.1 °F 82.3 °F 66.9 °F 64% 29.96 in 10.0 mi ESE 8.1 mph - N/A   Clear
3:29 AM 80.6 °F 83.2 °F 68.0 °F 65% 29.96 in 10.0 mi SE 11.5 mph 16.1 mph 0.00 in Rain Light Rain
3:39 AM 80.6 °F 83.2 °F 68.0 °F 65% 29.95 in 10.0 mi SE 10.4 mph 18.4 mph 0.00 in Rain Light Rain
3:53 AM 81.0 °F 83.3 °F 66.9 °F 62% 29.95 in 10.0 mi SE 11.5 mph 21.9 mph 0.00 in   Mostly Cloudy
4:13 AM 80.6 °F 83.2 °F 68.0 °F 65% 29.95 in 10.0 mi SE 11.5 mph 19.6 mph N/A   Mostly Cloudy
4:33 AM 80.6 °F 82.7 °F 66.2 °F 61% 29.95 in 10.0 mi ESE 10.4 mph 18.4 mph N/A   Partly Cloudy
4:53 AM 80.1 °F 82.3 °F 66.9 °F 64% 29.95 in 10.0 mi SE 9.2 mph - N/A   Clear
5:53 AM 79.0 °F - 68.0 °F 69% 29.96 in 10.0 mi ESE 8.1 mph - 0.02 in   Partly Cloudy
6:53 AM 80.1 °F 82.7 °F 68.0 °F 67% 29.96 in 10.0 mi ESE 9.2 mph - N/A   Scattered Clouds
7:53 AM 80.1 °F 82.9 °F 69.1 °F 69% 29.99 in 10.0 mi SE 9.2 mph - 0.00 in Rain Light Rain
8:05 AM 78.8 °F - 69.8 °F 74% 29.99 in 9.0 mi ESE 6.9 mph - 0.01 in Rain Light Rain
8:53 AM 82.0 °F 85.9 °F 70.0 °F 67% 29.99 in 10.0 mi ESE 8.1 mph - 0.01 in   Partly Cloudy
9:53 AM 84.0 °F 89.0 °F 71.1 °F 65% 30.00 in 10.0 mi ESE 6.9 mph - N/A   Mostly Cloudy
10:53 AM 86.0 °F 90.7 °F 70.0 °F 59% 30.00 in 10.0 mi East 9.2 mph 16.1 mph N/A   Scattered Clouds
11:22 AM 80.6 °F 83.9 °F 69.8 °F 70% 30.01 in 10.0 mi East 10.4 mph 20.7 mph N/A   Mostly Cloudy
11:49 AM 77.0 °F - 68.0 °F 74% 30.01 in 3.0 mi ESE 15.0 mph 26.5 mph 0.02 in Rain Light Rain
11:51 AM 75.2 °F - 69.8 °F 83% 30.01 in 1.8 mi ESE 13.8 mph 26.5 mph 0.05 in Rain , Thunderstorm Heavy Rain
11:53 AM 75.9 °F - 69.1 °F 79% 30.01 in 1.2 mi ESE 12.7 mph 23.0 mph 0.07 in Rain , Thunderstorm Heavy Rain
12:11 PM 73.4 °F - 66.2 °F 78% 30.01 in 2.0 mi ESE 8.1 mph 18.4 mph 0.09 in Rain Rain
12:21 PM 73.4 °F - 66.2 °F 78% 30.01 in 3.0 mi SE 9.2 mph 16.1 mph 0.12 in Rain Rain
12:53 PM 77.0 °F - 70.0 °F 79% 30.01 in 7.0 mi South 4.6 mph - 0.15 in Rain Light Rain
1:25 PM 75.2 °F - 68.0 °F 78% 30.01 in 10.0 mi Calm Calm - 0.01 in Thunderstorm Mostly Cloudy
1:53 PM 75.9 °F - 69.1 °F 79% 30.01 in 6.0 mi Calm Calm - 0.03 in Rain , Thunderstorm Light Thunderstorms and Rain
2:14 PM 75.2 °F - 69.8 °F 83% 30.00 in 1.8 mi Variable 4.6 mph - 0.05 in Rain , Thunderstorm Rain
2:30 PM 75.2 °F - 71.6 °F 89% 29.99 in 1.5 mi Calm Calm - 0.12 in Rain Rain
2:34 PM 77.0 °F - 71.6 °F 83% 29.99 in 3.0 mi Calm Calm - 0.12 in Rain Light Rain
2:53 PM 78.1 °F - 71.1 °F 79% 29.97 in 9.0 mi Variable 3.5 mph - 0.13 in Rain Light Rain
3:53 PM 82.0 °F 86.7 °F 72.0 °F 71% 29.94 in 10.0 mi SE 6.9 mph - 0.00 in   Clear
4:53 PM 84.0 °F 87.8 °F 69.1 °F 61% 29.96 in 10.0 mi East 10.4 mph - N/A   Scattered Clouds
5:53 PM 82.9 °F 87.0 °F 70.0 °F 65% 29.93 in 10.0 mi East 5.8 mph - N/A   Clear
6:53 PM 82.0 °F 85.5 °F 69.1 °F 65% 29.94 in 10.0 mi East 9.2 mph - N/A   Clear
7:53 PM 81.0 °F 84.1 °F 69.1 °F 67% 29.96 in 10.0 mi East 6.9 mph - N/A   Clear
8:53 PM 81.0 °F 84.1 °F 69.1 °F 67% 29.97 in 10.0 mi East 6.9 mph - N/A   Partly Cloudy
9:53 PM 81.0 °F 84.1 °F 69.1 °F 67% 29.95 in 10.0 mi ESE 9.2 mph 16.1 mph N/A   Clear
10:53 PM 81.0 °F 84.4 °F 70.0 °F 69% 29.96 in 10.0 mi SSE 12.7 mph 21.9 mph N/A   Clear
11:53 PM 78.1 °F - 68.0 °F 71% 29.96 in 10.0 mi South 12.7 mph 23.0 mph N/A   Clear